Belen, NM

2:53 AM MST on November 24, 2017 (GMT -0700)
Belen

Weather History for KE80 - January, 2014

Change the Weather History Date:

Saturday, January 18, 2014

  Actual Average (KABQ) Record (KABQ)
Temperature  
Mean Temperature 38 °F -  
Max Temperature 56 °F 47 °F 65 °F (1906)
Min Temperature 20 °F 25 °F -1 °F (1915)
Degree Days  
Heating Degree Days 27    
Moisture  
Dew Point 12 °F    
Average Humidity 39    
Maximum Humidity 67    
Minimum Humidity 17    
Precipitation  
Precipitation 0.00 in - - ()
Sea Level Pressure  
Sea Level Pressure 30.25 in    
Wind  
Wind Speed 4 mph (NNW)    
Max Wind Speed 9 mph    
Max Gust Speed -    
Visibility 10 miles    
Events      
Averages and records for this station are not official NWS values.
T = Trace of Precipitation, MM = Missing Value Source: NWS Daily Summary

Daily Weather History Graph

Daily Weather History Graph

Search for Another Location

Airport or City:

Trip Planner

Search our weather history database for the weather conditions in past years. The results will help you decide how hot, cold, wet, or windy it might be!

Date:

Astronomy

Jan. 18, 2014 Rise Set
Actual Time 7:13 AM MST 5:22 PM MST
Civil Twilight 6:45 AM MST 5:50 PM MST
Nautical Twilight 6:15 AM MST 6:20 PM MST
Astronomical Twilight 5:44 AM MST 6:51 PM MST
Moon 7:59 PM MST (1/18) 8:21 AM MST (1/18)
Length of Visible Light 11h 04m
Length of Day
10h 09m
Waning Gibbous, 94% of the Moon is Illuminated
Jan 18
Waning Gibbous
Jan 23
Last Quarter
Jan 30
New
Feb 6
First Quarter
Feb 14
Full

Hourly Weather History & Observations

Time (MST) Temp. Windchill Dew Point Humidity Pressure Visibility Wind Dir Wind Speed Gust Speed Precip Events Conditions
12:15 AM 26.8 °F 22.8 °F 12.0 °F 54% 30.20 in 10.0 mi North 3.5 mph - N/A   Clear
12:35 AM 25.0 °F 19.3 °F 11.3 °F 56% 30.20 in 10.0 mi North 4.6 mph - N/A   Clear
12:55 AM 24.3 °F 15.4 °F 11.1 °F 57% 30.19 in 10.0 mi WNW 8.1 mph - N/A   Clear
1:15 AM 28.6 °F 21.5 °F 11.7 °F 49% 30.19 in 10.0 mi WNW 6.9 mph - N/A   Clear
1:35 AM 26.4 °F 19.8 °F 12.0 °F 55% 30.20 in 10.0 mi NW 5.8 mph - N/A   Clear
1:55 AM 22.6 °F 18.0 °F 10.8 °F 60% 30.20 in 10.0 mi North 3.5 mph - N/A   Clear
2:15 AM 30.2 °F - 12.0 °F 47% 30.21 in 10.0 mi Calm Calm - N/A   Clear
2:35 AM 25.2 °F - 10.9 °F 55% 30.21 in 10.0 mi Calm Calm - N/A   Clear
2:55 AM 21.0 °F 16.2 °F 10.2 °F 63% 30.21 in 10.0 mi WNW 3.5 mph - N/A   Clear
3:15 AM 23.7 °F 16.6 °F 11.5 °F 60% 30.20 in 10.0 mi West 5.8 mph - N/A   Clear
3:35 AM 25.2 °F 16.5 °F 11.3 °F 56% 30.20 in 10.0 mi NW 8.1 mph - N/A   Clear
3:55 AM 22.3 °F 14.9 °F 11.1 °F 62% 30.20 in 10.0 mi WNW 5.8 mph - N/A   Clear
4:15 AM 24.3 °F 15.4 °F 11.1 °F 57% 30.20 in 10.0 mi WNW 8.1 mph - N/A   Clear
4:35 AM 23.4 °F 13.5 °F 10.8 °F 59% 30.19 in 10.0 mi WNW 9.2 mph - N/A   Clear
4:55 AM 23.2 °F 17.2 °F 10.8 °F 59% 30.19 in 10.0 mi NNW 4.6 mph - N/A   Clear
5:15 AM 23.9 °F 14.2 °F 11.3 °F 59% 30.20 in 10.0 mi NW 9.2 mph - N/A   Clear
5:35 AM 23.5 °F 15.4 °F 11.1 °F 59% 30.20 in 10.0 mi NNW 6.9 mph - N/A   Clear
5:55 AM 21.0 °F 13.4 °F 10.4 °F 64% 30.21 in 10.0 mi North 5.8 mph - N/A   Clear
6:15 AM 20.8 °F 10.4 °F 11.3 °F 67% 30.22 in 10.0 mi WNW 9.2 mph - N/A   Clear
6:35 AM 22.6 °F 12.6 °F 11.5 °F 62% 30.23 in 10.0 mi WNW 9.2 mph - N/A   Clear
6:55 AM 23.0 °F 13.1 °F 11.1 °F 60% 30.23 in 10.0 mi WNW 9.2 mph - N/A   Clear
7:15 AM 21.9 °F - 10.6 °F 62% 30.25 in 10.0 mi Calm Calm - N/A   Clear
7:35 AM 22.8 °F - 11.1 °F 61% 30.26 in 10.0 mi Calm Calm - N/A   Clear
7:55 AM 26.6 °F 21.2 °F 12.2 °F 55% 30.26 in 10.0 mi NW 4.6 mph - N/A   Clear
8:15 AM 30.9 °F 24.3 °F 12.7 °F 47% 30.27 in 10.0 mi NNW 6.9 mph - N/A   Clear
8:35 AM 34.5 °F 30.4 °F 12.6 °F 40% 30.27 in 10.0 mi NNW 4.6 mph - N/A   Clear
8:55 AM 37.0 °F 34.5 °F 13.3 °F 38% 30.28 in 10.0 mi NW 3.5 mph - N/A   Clear
9:15 AM 39.9 °F 36.7 °F 13.8 °F 35% 30.29 in 10.0 mi NNW 4.6 mph - N/A   Clear
9:35 AM 41.5 °F 39.6 °F 14.2 °F 33% 30.29 in 10.0 mi NW 3.5 mph - N/A   Clear
9:55 AM 42.6 °F 39.9 °F 14.2 °F 32% 30.31 in 10.0 mi WNW 4.6 mph - N/A   Clear
10:15 AM 44.6 °F 42.2 °F 13.6 °F 29% 30.31 in 10.0 mi NE 4.6 mph - N/A   Clear
10:35 AM 45.3 °F - 12.9 °F 27% 30.30 in 10.0 mi Calm Calm - N/A   Clear
10:55 AM 46.4 °F - 13.6 °F 27% 30.29 in 10.0 mi Calm Calm - N/A   Clear
11:15 AM 47.8 °F - 13.5 °F 25% 30.29 in 10.0 mi Calm Calm - N/A   Clear
11:35 AM 49.8 °F - 13.1 °F 23% 30.29 in 10.0 mi Calm Calm - N/A   Clear
11:55 AM 50.7 °F - 13.5 °F 23% 30.27 in 10.0 mi Calm Calm - N/A   Clear
12:15 PM 51.8 °F - 14.0 °F 22% 30.26 in 10.0 mi Calm Calm - N/A   Clear
12:35 PM 52.3 °F - 14.0 °F 22% 30.25 in 10.0 mi North 4.6 mph - N/A   Clear
12:55 PM 52.7 °F - 13.5 °F 21% 30.25 in 10.0 mi ENE 4.6 mph - N/A   Clear
1:15 PM 53.8 °F - 12.4 °F 19% 30.23 in 10.0 mi NNE 5.8 mph - N/A   Clear
1:35 PM 54.3 °F - 12.7 °F 19% 30.23 in 10.0 mi Calm Calm - N/A   Clear
1:55 PM 54.3 °F - 12.7 °F 19% 30.23 in 10.0 mi North 5.8 mph - N/A   Clear
2:15 PM 55.0 °F - 12.4 °F 18% 30.23 in 10.0 mi NNE 4.6 mph - N/A   Clear
2:35 PM 56.3 °F - 12.4 °F 18% 30.22 in 10.0 mi NNW 5.8 mph - N/A   Clear
2:55 PM 56.5 °F - 12.6 °F 18% 30.22 in 10.0 mi North 4.6 mph - N/A   Clear
3:15 PM 56.8 °F - 12.2 °F 17% 30.23 in 10.0 mi NNW 6.9 mph - N/A   Clear
3:35 PM 56.8 °F - 12.4 °F 17% 30.23 in 10.0 mi North 6.9 mph - N/A   Clear
3:55 PM 56.7 °F - 12.4 °F 17% 30.23 in 10.0 mi NNE 4.6 mph - N/A   Clear
4:15 PM 56.3 °F - 12.2 °F 17% 30.24 in 10.0 mi North 4.6 mph - N/A   Clear
4:35 PM 55.4 °F - 12.2 °F 18% 30.25 in 10.0 mi Calm Calm - N/A   Clear
4:55 PM 53.4 °F - 11.7 °F 19% 30.25 in 10.0 mi NNE 4.6 mph - N/A   Clear
5:15 PM 52.5 °F - 11.7 °F 20% 30.25 in 10.0 mi NNE 3.5 mph - N/A   Clear
5:35 PM 46.9 °F - 10.9 °F 23% 30.25 in 10.0 mi East 3.5 mph - N/A   Clear
5:55 PM 43.5 °F - 10.9 °F 27% 30.26 in 10.0 mi Calm Calm - N/A   Clear
6:15 PM 42.1 °F 40.2 °F 10.0 °F 27% 30.26 in 10.0 mi ESE 3.5 mph - N/A   Clear
6:35 PM 39.7 °F 37.6 °F 10.8 °F 30% 30.26 in 10.0 mi SW 3.5 mph - N/A   Clear
6:55 PM 39.6 °F - 10.8 °F 31% 30.26 in 10.0 mi Calm Calm - N/A   Clear
7:15 PM 37.9 °F 35.5 °F 9.9 °F 31% 30.27 in 10.0 mi South 3.5 mph - N/A   Clear
7:35 PM 33.4 °F - 8.8 °F 36% 30.27 in 10.0 mi Calm Calm - N/A   Clear
7:55 PM 39.4 °F 37.2 °F 11.1 °F 31% 30.28 in 10.0 mi SW 3.5 mph - N/A   Clear
8:15 PM 36.1 °F - 10.6 °F 35% 30.27 in 10.0 mi Calm Calm - N/A   Clear
8:35 PM 36.3 °F - 10.8 °F 35% 30.28 in 10.0 mi Calm Calm - N/A   Clear
8:55 PM 32.4 °F - 9.0 °F 38% 30.29 in 10.0 mi Calm Calm - N/A   Clear
9:15 PM 33.6 °F - 10.4 °F 38% 30.30 in 10.0 mi Calm Calm - N/A   Clear
9:35 PM 30.0 °F - 8.6 °F 41% 30.30 in 10.0 mi Calm Calm - N/A   Clear
9:55 PM 29.3 °F - 9.9 °F 44% 30.30 in 10.0 mi Calm Calm - N/A   Clear
10:15 PM 29.1 °F 25.4 °F 9.0 °F 43% 30.31 in 10.0 mi East 3.5 mph - N/A   Clear
10:35 PM 27.0 °F - 9.7 °F 48% 30.32 in 10.0 mi Calm Calm - N/A   Clear
10:55 PM 29.8 °F 26.3 °F 10.8 °F 45% 30.31 in 10.0 mi WNW 3.5 mph - N/A   Clear
11:15 PM 28.2 °F 23.1 °F 11.1 °F 49% 30.31 in 10.0 mi NW 4.6 mph - N/A   Clear
11:35 PM 25.3 °F 19.7 °F 10.4 °F 53% 30.32 in 10.0 mi NNE 4.6 mph - N/A   Clear
11:55 PM 29.7 °F - 9.9 °F 44% 30.32 in 10.0 mi Calm Calm - N/A   Clear